Wetterdaten: Montag, 01.02.2016
Datum Zeit Temp. A. Feuchte A. Luftdruck Regen Wind Richtung Richtung Sonnenschein ET UV Solar Taupunkt Windchill Windben Empfang
01.02.2016 00:00 2,7 C 98 % 1012,6 hPa 0,4 l/m 0,6 km/h (0 Bft) O-NO 58 0 min 0,000 mm 0,0 UV-I 0 W/m 2,4 C 2,7 C 3,2 km/h (1 Bft) 99,21 %
01.02.2016 00:05 2,7 C 98 % 1012,5 hPa 0,0 l/m 3,7 km/h (1 Bft) S-SO 161 0 min 0,000 mm 0,0 UV-I 0 W/m 2,4 C 2,7 C 8,0 km/h (2 Bft) 99,10 %
01.02.2016 00:10 2,8 C 98 % 1012,7 hPa 0,0 l/m 1,8 km/h (1 Bft) N-NW 332 0 min 0,000 mm 0,0 UV-I 0 W/m 2,5 C 2,8 C 4,8 km/h (1 Bft) 99,15 %
01.02.2016 00:15 2,7 C 98 % 1012,5 hPa 0,0 l/m 1,2 km/h (1 Bft) O-NO 63 0 min 0,000 mm 0,0 UV-I 0 W/m 2,4 C 2,7 C 3,2 km/h (1 Bft) 97,56 %
01.02.2016 00:20 2,7 C 98 % 1012,6 hPa 0,2 l/m 2,1 km/h (1 Bft) N-NO 13 0 min 0,000 mm 0,0 UV-I 0 W/m 2,4 C 2,7 C 6,4 km/h (2 Bft) 97,32 %
01.02.2016 00:25 2,7 C 98 % 1012,4 hPa 0,2 l/m 1,6 km/h (1 Bft) NO 43 0 min 0,000 mm 0,0 UV-I 0 W/m 2,4 C 2,7 C 3,2 km/h (1 Bft) 95,76 %
01.02.2016 00:30 2,7 C 98 % 1012,4 hPa 0,0 l/m 2,7 km/h (1 Bft) N 5 0 min 0,000 mm 0,0 UV-I 0 W/m 2,4 C 2,7 C 6,4 km/h (2 Bft) 96,30 %
01.02.2016 00:35 2,7 C 98 % 1012,4 hPa 0,2 l/m 3,8 km/h (1 Bft) N-NO 25 0 min 0,000 mm 0,0 UV-I 0 W/m 2,4 C 2,7 C 6,4 km/h (2 Bft) 96,06 %
01.02.2016 00:40 2,7 C 98 % 1012,3 hPa 0,2 l/m 1,1 km/h (1 Bft) N-NO 20 0 min 0,000 mm 0,0 UV-I 0 W/m 2,4 C 2,7 C 4,8 km/h (1 Bft) 97,50 %
01.02.2016 00:45 2,7 C 98 % 1012,2 hPa 0,2 l/m 2,6 km/h (1 Bft) NO 49 0 min 0,000 mm 0,0 UV-I 0 W/m 2,4 C 2,7 C 4,8 km/h (1 Bft) 97,17 %
01.02.2016 00:50 2,7 C 98 % 1012,2 hPa 0,2 l/m 1,3 km/h (1 Bft) N-NO 24 0 min 0,000 mm 0,0 UV-I 0 W/m 2,4 C 2,7 C 6,4 km/h (2 Bft) 98,35 %
01.02.2016 00:55 2,7 C 98 % 1012,0 hPa 0,4 l/m 3,9 km/h (1 Bft) O-SO 109 0 min 0,000 mm 0,0 UV-I 0 W/m 2,4 C 2,7 C 9,7 km/h (2 Bft) 100,00 %
01.02.2016 01:00 2,7 C 98 % 1012,1 hPa 0,2 l/m 3,5 km/h (1 Bft) N 10 0 min 0,000 mm 0,0 UV-I 0 W/m 2,4 C 2,7 C 6,4 km/h (2 Bft) 96,33 %
01.02.2016 01:05 2,7 C 98 % 1012,4 hPa 0,2 l/m 4,3 km/h (1 Bft) O 98 0 min 0,000 mm 0,0 UV-I 0 W/m 2,4 C 2,7 C 11,3 km/h (2 Bft) 100,00 %
01.02.2016 01:10 2,7 C 98 % 1012,1 hPa 0,2 l/m 2,1 km/h (1 Bft) O 84 0 min 0,000 mm 0,0 UV-I 0 W/m 2,4 C 2,7 C 4,8 km/h (1 Bft) 100,00 %
01.02.2016 01:15 2,7 C 98 % 1012,4 hPa 0,2 l/m 1,8 km/h (1 Bft) SO 146 0 min 0,000 mm 0,0 UV-I 0 W/m 2,4 C 2,7 C 4,8 km/h (1 Bft) 99,11 %
01.02.2016 01:20 2,7 C 98 % 1012,3 hPa 0,0 l/m 2,4 km/h (1 Bft) N-NO 20 0 min 0,000 mm 0,0 UV-I 0 W/m 2,4 C 2,7 C 8,0 km/h (2 Bft) 99,13 %
01.02.2016 01:25 2,7 C 98 % 1012,3 hPa 0,2 l/m 1,2 km/h (1 Bft) O 86 0 min 0,000 mm 0,0 UV-I 0 W/m 2,4 C 2,7 C 3,2 km/h (1 Bft) 100,00 %
01.02.2016 01:30 2,7 C 99 % 1012,3 hPa 0,2 l/m 3,7 km/h (1 Bft) O-SO 114 0 min 0,000 mm 0,0 UV-I 0 W/m 2,6 C 2,7 C 6,4 km/h (2 Bft) 100,00 %
01.02.2016 01:35 2,8 C 99 % 1012,2 hPa 0,2 l/m 3,4 km/h (1 Bft) S-SO 159 0 min 0,000 mm 0,0 UV-I 0 W/m 2,7 C 2,8 C 8,0 km/h (2 Bft) 100,00 %
01.02.2016 01:40 2,7 C 99 % 1012,2 hPa 0,2 l/m 4,8 km/h (1 Bft) SO 130 0 min 0,000 mm 0,0 UV-I 0 W/m 2,6 C 2,7 C 11,3 km/h (2 Bft) 98,35 %
01.02.2016 01:45 2,8 C 99 % 1012,4 hPa 0,0 l/m 1,5 km/h (1 Bft) NO 34 0 min 0,000 mm 0,0 UV-I 0 W/m 2,7 C 2,8 C 4,8 km/h (1 Bft) 100,00 %
01.02.2016 01:50 2,7 C 98 % 1012,4 hPa 0,2 l/m 0,1 km/h (0 Bft) O-NO 70 0 min 0,000 mm 0,0 UV-I 0 W/m 2,4 C 2,7 C 1,6 km/h (1 Bft) 100,00 %
01.02.2016 01:55 2,7 C 99 % 1012,5 hPa 0,2 l/m 0,1 km/h (0 Bft) O-NO 70 0 min 0,000 mm 0,0 UV-I 0 W/m 2,6 C 2,7 C 1,6 km/h (1 Bft) 100,00 %
01.02.2016 02:00 2,8 C 99 % 1012,7 hPa 0,0 l/m 2,0 km/h (1 Bft) NW 309 0 min 0,000 mm 0,0 UV-I 0 W/m 2,7 C 2,8 C 4,8 km/h (1 Bft) 98,41 %
01.02.2016 02:05 2,8 C 99 % 1012,5 hPa 0,4 l/m 0,8 km/h (0 Bft) O-SO 105 0 min 0,000 mm 0,0 UV-I 0 W/m 2,7 C 2,8 C 4,8 km/h (1 Bft) 100,00 %
01.02.2016 02:10 2,9 C 99 % 1013,2 hPa 0,0 l/m 1,1 km/h (1 Bft) NW 317 0 min 0,000 mm 0,0 UV-I 0 W/m 2,8 C 2,9 C 3,2 km/h (1 Bft) 100,00 %
01.02.2016 02:15 2,9 C 99 % 1012,8 hPa 0,2 l/m 4,7 km/h (1 Bft) S-SW 193 0 min 0,000 mm 0,0 UV-I 0 W/m 2,8 C 2,9 C 11,3 km/h (2 Bft) 100,00 %
01.02.2016 02:20 2,9 C 99 % 1012,7 hPa 0,2 l/m 1,1 km/h (1 Bft) S-SW 201 0 min 0,000 mm 0,0 UV-I 0 W/m 2,8 C 2,9 C 4,8 km/h (1 Bft) 96,06 %
01.02.2016 02:25 2,9 C 99 % 1012,6 hPa 0,0 l/m 1,6 km/h (1 Bft) S 190 0 min 0,000 mm 0,0 UV-I 0 W/m 2,8 C 2,9 C 6,4 km/h (2 Bft) 96,43 %
01.02.2016 02:30 3,1 C 99 % 1012,7 hPa 0,2 l/m 1,0 km/h (0 Bft) S 175 0 min 0,000 mm 0,0 UV-I 0 W/m 3,0 C 3,1 C 3,2 km/h (1 Bft) 97,37 %
01.02.2016 02:35 3,3 C 99 % 1012,6 hPa 0,0 l/m 1,5 km/h (1 Bft) S 174 0 min 0,000 mm 0,0 UV-I 0 W/m 3,2 C 3,3 C 3,2 km/h (1 Bft) 96,77 %
01.02.2016 02:40 3,4 C 99 % 1012,7 hPa 0,2 l/m 2,1 km/h (1 Bft) S 174 0 min 0,000 mm 0,0 UV-I 0 W/m 3,3 C 3,4 C 3,2 km/h (1 Bft) 95,54 %
01.02.2016 02:45 3,6 C 99 % 1012,5 hPa 0,2 l/m 1,9 km/h (1 Bft) S-SO 168 0 min 0,000 mm 0,0 UV-I 0 W/m 3,5 C 3,6 C 6,4 km/h (2 Bft) 97,56 %
01.02.2016 02:50 3,7 C 99 % 1012,7 hPa 0,2 l/m 0,6 km/h (0 Bft) S-SO 168 0 min 0,000 mm 0,0 UV-I 0 W/m 3,6 C 3,7 C 3,2 km/h (1 Bft) 98,17 %
01.02.2016 02:55 3,5 C 99 % 1012,7 hPa 0,4 l/m 1,0 km/h (0 Bft) NO 46 0 min 0,000 mm 0,0 UV-I 0 W/m 3,4 C 3,5 C 3,2 km/h (1 Bft) 97,44 %
01.02.2016 03:00 3,4 C 99 % 1012,7 hPa 0,4 l/m 2,6 km/h (1 Bft) N-NO 30 0 min 0,000 mm 0,0 UV-I 0 W/m 3,3 C 3,4 C 4,8 km/h (1 Bft) 100,00 %
01.02.2016 03:05 3,4 C 99 % 1012,8 hPa 0,2 l/m 3,7 km/h (1 Bft) NO 40 0 min 0,000 mm 0,0 UV-I 0 W/m 3,3 C 3,4 C 6,4 km/h (2 Bft) 97,25 %
01.02.2016 03:10 3,3 C 99 % 1012,8 hPa 0,4 l/m 2,2 km/h (1 Bft) O-NO 66 0 min 0,000 mm 0,0 UV-I 0 W/m 3,2 C 3,3 C 4,8 km/h (1 Bft) 100,00 %
01.02.2016 03:15 3,3 C 99 % 1012,7 hPa 0,4 l/m 1,7 km/h (1 Bft) O-NO 66 0 min 0,000 mm 0,0 UV-I 0 W/m 3,2 C 3,3 C 3,2 km/h (1 Bft) 98,26 %
01.02.2016 03:20 3,4 C 99 % 1012,7 hPa 0,4 l/m 0,2 km/h (0 Bft) O-NO 65 0 min 0,000 mm 0,0 UV-I 0 W/m 3,3 C 3,4 C 1,6 km/h (1 Bft) 100,00 %
01.02.2016 03:25 3,5 C 99 % 1012,7 hPa 0,2 l/m 1,2 km/h (1 Bft) O-NO 63 0 min 0,000 mm 0,0 UV-I 0 W/m 3,4 C 3,5 C 3,2 km/h (1 Bft) 99,08 %
01.02.2016 03:30 3,5 C 99 % 1012,7 hPa 0,2 l/m 1,9 km/h (1 Bft) O-NO 63 0 min 0,000 mm 0,0 UV-I 0 W/m 3,4 C 3,5 C 3,2 km/h (1 Bft) 100,00 %
01.02.2016 03:35 3,5 C 99 % 1012,7 hPa 0,4 l/m 0,4 km/h (0 Bft) O-NO 63 0 min 0,000 mm 0,0 UV-I 0 W/m 3,4 C 3,5 C 3,2 km/h (1 Bft) 99,17 %
01.02.2016 03:40 3,5 C 99 % 1012,7 hPa 0,0 l/m 0,4 km/h (0 Bft) O-NO 63 0 min 0,000 mm 0,0 UV-I 0 W/m 3,4 C 3,5 C 3,2 km/h (1 Bft) 100,00 %
01.02.2016 03:45 3,6 C 99 % 1012,7 hPa 0,2 l/m 0,2 km/h (0 Bft) O-NO 63 0 min 0,000 mm 0,0 UV-I 0 W/m 3,5 C 3,6 C 1,6 km/h (1 Bft) 98,17 %
01.02.2016 03:50 3,7 C 99 % 1012,8 hPa 0,4 l/m 0,2 km/h (0 Bft) SO 136 0 min 0,000 mm 0,0 UV-I 0 W/m 3,6 C 3,7 C 3,2 km/h (1 Bft) 100,00 %
01.02.2016 03:55 3,8 C 99 % 1012,8 hPa 0,2 l/m 0,8 km/h (0 Bft) S-SO 163 0 min 0,000 mm 0,0 UV-I 0 W/m 3,7 C 3,8 C 3,2 km/h (1 Bft) 100,00 %
01.02.2016 04:00 3,8 C 99 % 1012,9 hPa 0,2 l/m 0,3 km/h (0 Bft) NO 36 0 min 0,000 mm 0,0 UV-I 0 W/m 3,7 C 3,8 C 3,2 km/h (1 Bft) 100,00 %
01.02.2016 04:05 3,7 C 99 % 1013,0 hPa 0,0 l/m 0,3 km/h (0 Bft) NO 36 0 min 0,000 mm 0,0 UV-I 0 W/m 3,6 C 3,7 C 1,6 km/h (1 Bft) 99,02 %
01.02.2016 04:10 3,8 C 99 % 1013,2 hPa 0,2 l/m 1,4 km/h (1 Bft) N-NO 28 0 min 0,000 mm 0,0 UV-I 0 W/m 3,7 C 3,8 C 3,2 km/h (1 Bft) 100,00 %
01.02.2016 04:15 3,8 C 99 % 1013,2 hPa 0,2 l/m 2,5 km/h (1 Bft) O-SO 110 0 min 0,000 mm 0,0 UV-I 0 W/m 3,7 C 3,8 C 4,8 km/h (1 Bft) 96,58 %
01.02.2016 04:20 3,8 C 99 % 1013,0 hPa 0,4 l/m 2,4 km/h (1 Bft) S-SO 158 0 min 0,000 mm 0,0 UV-I 0 W/m 3,7 C 3,8 C 4,8 km/h (1 Bft) 99,11 %
01.02.2016 04:25 4,1 C 99 % 1013,1 hPa 0,0 l/m 0,7 km/h (0 Bft) S-SO 158 0 min 0,000 mm 0,0 UV-I 0 W/m 4,0 C 4,1 C 3,2 km/h (1 Bft) 97,52 %
01.02.2016 04:30 4,2 C 99 % 1013,2 hPa 0,4 l/m 0,3 km/h (0 Bft) N 5 0 min 0,000 mm 0,0 UV-I 0 W/m 4,1 C 4,2 C 1,6 km/h (1 Bft) 96,75 %
01.02.2016 04:35 3,8 C 99 % 1013,4 hPa 0,0 l/m 0,2 km/h (0 Bft) N 5 0 min 0,000 mm 0,0 UV-I 0 W/m 3,7 C 3,8 C 1,6 km/h (1 Bft) 97,46 %
01.02.2016 04:40 3,8 C 99 % 1013,2 hPa 0,2 l/m 1,4 km/h (1 Bft) O 94 0 min 0,000 mm 0,0 UV-I 0 W/m 3,7 C 3,8 C 4,8 km/h (1 Bft) 97,37 %
01.02.2016 04:45 4,2 C 99 % 1013,3 hPa 0,0 l/m 3,2 km/h (1 Bft) S-SW 204 0 min 0,000 mm 0,0 UV-I 0 W/m 4,1 C 4,2 C 8,0 km/h (2 Bft) 96,52 %
01.02.2016 04:50 4,2 C 99 % 1013,5 hPa 0,0 l/m 0,3 km/h (0 Bft) W-NW 291 0 min 0,000 mm 0,0 UV-I 0 W/m 4,1 C 4,2 C 3,2 km/h (1 Bft) 97,52 %
01.02.2016 04:55 4,1 C 99 % 1013,5 hPa 0,0 l/m 0,7 km/h (0 Bft) N-NO 15 0 min 0,000 mm 0,0 UV-I 0 W/m 4,0 C 4,1 C 3,2 km/h (1 Bft) 95,50 %
01.02.2016 05:00 4,0 C 99 % 1013,7 hPa 0,2 l/m 3,5 km/h (1 Bft) N-NO 25 0 min 0,000 mm 0,0 UV-I 0 W/m 3,9 C 4,0 C 8,0 km/h (2 Bft) 97,58 %
01.02.2016 05:05 4,2 C 99 % 1013,7 hPa 0,0 l/m 5,1 km/h (1 Bft) O-NO 59 0 min 0,000 mm 0,0 UV-I 0 W/m 4,1 C 4,2 C 9,7 km/h (2 Bft) 99,15 %
01.02.2016 05:10 4,2 C 99 % 1014,0 hPa 0,0 l/m 3,4 km/h (1 Bft) O-NO 63 0 min 0,000 mm 0,0 UV-I 0 W/m 4,1 C 4,2 C 6,4 km/h (2 Bft) 99,05 %
01.02.2016 05:15 4,9 C 99 % 1014,0 hPa 0,0 l/m 2,3 km/h (1 Bft) W-SW 240 0 min 0,000 mm 0,0 UV-I 0 W/m 4,8 C 4,9 C 11,3 km/h (2 Bft) 98,31 %
01.02.2016 05:20 6,0 C 99 % 1014,2 hPa 0,0 l/m 8,9 km/h (2 Bft) W-SW 255 0 min 0,000 mm 0,0 UV-I 0 W/m 5,9 C 4,0 C 17,7 km/h (3 Bft) 99,15 %
01.02.2016 05:25 7,0 C 99 % 1014,4 hPa 0,2 l/m 13,7 km/h (3 Bft) W-NW 288 0 min 0,000 mm 0,0 UV-I 0 W/m 6,9 C 2,1 C 30,6 km/h (5 Bft) 99,17 %
01.02.2016 05:30 6,6 C 99 % 1014,6 hPa 0,0 l/m 4,7 km/h (1 Bft) NW 313 0 min 0,000 mm 0,0 UV-I 0 W/m 6,5 C 6,6 C 16,1 km/h (3 Bft) 100,00 %
01.02.2016 05:35 7,0 C 99 % 1014,8 hPa 0,2 l/m 9,0 km/h (2 Bft) W-NW 295 0 min 0,000 mm 0,0 UV-I 0 W/m 6,9 C 5,0 C 25,7 km/h (4 Bft) 99,12 %
01.02.2016 05:40 7,1 C 99 % 1014,9 hPa 0,0 l/m 4,4 km/h (1 Bft) W-NW 301 0 min 0,000 mm 0,0 UV-I 0 W/m 7,0 C 7,1 C 9,7 km/h (2 Bft) 99,13 %
01.02.2016 05:45 6,9 C 99 % 1014,9 hPa 0,0 l/m 4,7 km/h (1 Bft) W-NW 301 0 min 0,000 mm 0,0 UV-I 0 W/m 6,8 C 6,9 C 12,9 km/h (3 Bft) 99,19 %
01.02.2016 05:50 6,6 C 99 % 1015,0 hPa 0,0 l/m 3,5 km/h (1 Bft) W-NW 292 0 min 0,000 mm 0,0 UV-I 0 W/m 6,5 C 6,6 C 8,0 km/h (2 Bft) 100,00 %
01.02.2016 05:55 6,8 C 99 % 1015,0 hPa 0,0 l/m 3,7 km/h (1 Bft) W-NW 300 0 min 0,000 mm 0,0 UV-I 0 W/m 6,7 C 6,8 C 6,4 km/h (2 Bft) 99,08 %
01.02.2016 06:00 6,9 C 99 % 1015,1 hPa 0,2 l/m 5,6 km/h (1 Bft) W 269 0 min 0,000 mm 0,0 UV-I 0 W/m 6,8 C 6,9 C 12,9 km/h (3 Bft) 98,31 %
01.02.2016 06:05 7,1 C 99 % 1015,2 hPa 0,0 l/m 4,6 km/h (1 Bft) W-NW 295 0 min 0,000 mm 0,0 UV-I 0 W/m 7,0 C 7,1 C 11,3 km/h (2 Bft) 97,50 %
01.02.2016 06:10 7,6 C 99 % 1015,2 hPa 0,2 l/m 10,0 km/h (2 Bft) W 273 0 min 0,000 mm 0,0 UV-I 0 W/m 7,5 C 4,9 C 19,3 km/h (3 Bft) 100,00 %
01.02.2016 06:15 8,3 C 99 % 1015,3 hPa 0,0 l/m 12,4 km/h (3 Bft) W 269 0 min 0,000 mm 0,0 UV-I 0 W/m 8,2 C 4,3 C 24,1 km/h (4 Bft) 98,45 %
01.02.2016 06:20 8,7 C 99 % 1015,4 hPa 0,2 l/m 10,7 km/h (2 Bft) W 270 0 min 0,000 mm 0,0 UV-I 0 W/m 8,6 C 5,7 C 17,7 km/h (3 Bft) 99,08 %
01.02.2016 06:25 8,9 C 99 % 1015,6 hPa 0,2 l/m 9,4 km/h (2 Bft) W-NW 298 0 min 0,000 mm 0,0 UV-I 0 W/m 8,8 C 6,8 C 19,3 km/h (3 Bft) 99,19 %
01.02.2016 06:30 9,1 C 99 % 1015,6 hPa 0,2 l/m 13,7 km/h (3 Bft) W-NW 292 0 min 0,000 mm 0,0 UV-I 0 W/m 9,0 C 4,6 C 30,6 km/h (5 Bft) 99,17 %
01.02.2016 06:35 9,4 C 99 % 1015,6 hPa 0,2 l/m 14,4 km/h (3 Bft) W-SW 252 0 min 0,000 mm 0,0 UV-I 0 W/m 9,3 C 4,7 C 22,5 km/h (4 Bft) 97,00 %
01.02.2016 06:40 9,7 C 99 % 1015,7 hPa 0,2 l/m 14,9 km/h (3 Bft) W-SW 256 0 min 0,000 mm 0,0 UV-I 0 W/m 9,6 C 4,8 C 24,1 km/h (4 Bft) 96,97 %
01.02.2016 06:45 9,9 C 99 % 1015,7 hPa 0,2 l/m 12,8 km/h (3 Bft) W-SW 257 0 min 0,000 mm 0,0 UV-I 0 W/m 9,8 C 6,0 C 19,3 km/h (3 Bft) 98,21 %
01.02.2016 06:50 10,1 C 99 % 1015,7 hPa 0,2 l/m 16,2 km/h (3 Bft) W 279 0 min 0,000 mm 0,0 UV-I 0 W/m 9,9 C 4,8 C 29,0 km/h (5 Bft) 96,52 %
01.02.2016 06:55 10,2 C 99 % 1015,8 hPa 0,2 l/m 17,9 km/h (3 Bft) W 267 0 min 0,000 mm 0,0 UV-I 0 W/m 10,0 C 4,3 C 33,8 km/h (5 Bft) 96,61 %
01.02.2016 07:00 10,3 C 99 % 1015,8 hPa 0,4 l/m 19,7 km/h (3 Bft) W-SW 248 0 min 0,000 mm 0,0 UV-I 0 W/m 10,1 C 3,8 C 33,8 km/h (5 Bft) 95,83 %
01.02.2016 07:05 10,4 C 99 % 1015,9 hPa 0,6 l/m 18,3 km/h (3 Bft) W 261 0 min 0,000 mm 0,0 UV-I 0 W/m 10,2 C 4,4 C 30,6 km/h (5 Bft) 98,26 %
01.02.2016 07:10 10,4 C 99 % 1016,2 hPa 0,6 l/m 23,5 km/h (4 Bft) SW 215 0 min 0,000 mm 0,0 UV-I 0 W/m 10,2 C 2,8 C 43,5 km/h (6 Bft) 97,56 %
01.02.2016 07:15 10,5 C 99 % 1016,2 hPa 0,4 l/m 20,8 km/h (4 Bft) SW 234 0 min 0,000 mm 0,0 UV-I 0 W/m 10,3 C 3,7 C 37,0 km/h (5 Bft) 99,06 %
01.02.2016 07:20 10,5 C 99 % 1016,2 hPa 0,2 l/m 16,5 km/h (3 Bft) SW 217 0 min 0,000 mm 0,0 UV-I 0 W/m 10,3 C 5,1 C 29,0 km/h (5 Bft) 100,00 %
01.02.2016 07:25 10,5 C 99 % 1016,3 hPa 0,4 l/m 16,3 km/h (3 Bft) W-SW 244 0 min 0,000 mm 0,0 UV-I 0 W/m 10,3 C 5,2 C 22,5 km/h (4 Bft) 99,10 %
01.02.2016 07:30 10,6 C 99 % 1016,5 hPa 0,2 l/m 18,3 km/h (3 Bft) W 274 0 min 0,000 mm 0,0 UV-I 0 W/m 10,4 C 4,6 C 27,4 km/h (4 Bft) 99,13 %
01.02.2016 07:35 10,5 C 99 % 1016,5 hPa 0,2 l/m 12,4 km/h (3 Bft) SW 229 0 min 0,000 mm 0,0 UV-I 0 W/m 10,3 C 6,9 C 20,9 km/h (4 Bft) 100,00 %
01.02.2016 07:40 10,4 C 99 % 1016,4 hPa 0,2 l/m 15,7 km/h (3 Bft) S-SW 211 0 min 0,000 mm 0,0 UV-I 0 W/m 10,2 C 5,3 C 25,7 km/h (4 Bft) 100,00 %
01.02.2016 07:45 10,4 C 99 % 1016,4 hPa 0,0 l/m 17,0 km/h (3 Bft) SW 231 0 min 0,000 mm 0,0 UV-I 5 W/m 10,2 C 4,8 C 25,7 km/h (4 Bft) 98,35 %
01.02.2016 07:50 10,3 C 99 % 1016,5 hPa 0,2 l/m 13,2 km/h (3 Bft) SW 233 0 min 0,000 mm 0,0 UV-I 5 W/m 10,1 C 6,3 C 20,9 km/h (4 Bft) 99,12 %
01.02.2016 07:55 10,3 C 98 % 1016,6 hPa 0,0 l/m 15,4 km/h (3 Bft) SW 223 0 min 0,000 mm 0,0 UV-I 6 W/m 10,0 C 5,3 C 25,7 km/h (4 Bft) 100,00 %
01.02.2016 08:00 10,3 C 98 % 1016,7 hPa 0,0 l/m 15,9 km/h (3 Bft) W-SW 244 0 min 0,000 mm 0,0 UV-I 9 W/m 10,0 C 5,1 C 22,5 km/h (4 Bft) 98,35 %
01.02.2016 08:05 10,4 C 99 % 1016,7 hPa 0,2 l/m 21,6 km/h (4 Bft) S-SW 202 0 min 0,000 mm 0,0 UV-I 8 W/m 10,2 C 3,3 C 35,4 km/h (5 Bft) 100,00 %
01.02.2016 08:10 10,6 C 98 % 1016,8 hPa 0,0 l/m 22,5 km/h (4 Bft) W-SW 254 0 min 0,000 mm 0,0 UV-I 11 W/m 10,3 C 3,3 C 32,2 km/h (5 Bft) 99,17 %
01.02.2016 08:15 10,7 C 98 % 1016,9 hPa 0,0 l/m 19,8 km/h (3 Bft) W-SW 250 0 min 0,000 mm 0,0 UV-I 14 W/m 10,4 C 4,3 C 35,4 km/h (5 Bft) 100,00 %
01.02.2016 08:20 10,8 C 98 % 1017,0 hPa 0,0 l/m 21,4 km/h (4 Bft) W 263 0 min 0,000 mm 0,0 UV-I 19 W/m 10,5 C 3,9 C 37,0 km/h (5 Bft) 99,21 %
01.02.2016 08:25 11,0 C 97 % 1017,1 hPa 0,2 l/m 26,8 km/h (4 Bft) S-SW 201 0 min 0,000 mm 0,0 UV-I 17 W/m 10,5 C 2,8 C 43,5 km/h (6 Bft) 99,17 %
01.02.2016 08:30 11,1 C 96 % 1017,2 hPa 0,0 l/m 24,3 km/h (4 Bft) W-SW 258 0 min 0,000 mm 0,0 UV-I 14 W/m 10,5 C 3,5 C 37,0 km/h (5 Bft) 98,20 %
01.02.2016 08:35 11,2 C 96 % 1017,3 hPa 0,2 l/m 27,3 km/h (4 Bft) W-SW 250 0 min 0,000 mm 0,0 UV-I 16 W/m 10,6 C 2,9 C 49,9 km/h (6 Bft) 98,31 %
01.02.2016 08:40 11,2 C 95 % 1017,4 hPa 0,0 l/m 23,2 km/h (4 Bft) SW 232 0 min 0,000 mm 0,0 UV-I 13 W/m 10,4 C 3,9 C 38,6 km/h (5 Bft) 97,46 %
01.02.2016 08:45 11,2 C 95 % 1017,5 hPa 0,0 l/m 25,2 km/h (4 Bft) W-SW 241 0 min 0,000 mm 0,0 UV-I 11 W/m 10,4 C 3,4 C 43,5 km/h (6 Bft) 97,44 %
01.02.2016 08:50 11,3 C 94 % 1017,6 hPa 0,0 l/m 24,0 km/h (4 Bft) SW 223 0 min 0,000 mm 0,0 UV-I 14 W/m 10,4 C 3,8 C 40,2 km/h (6 Bft) 97,52 %
01.02.2016 08:55 11,3 C 94 % 1017,8 hPa 0,0 l/m 21,5 km/h (4 Bft) W-SW 258 0 min 0,000 mm 0,0 UV-I 15 W/m 10,4 C 4,5 C 41,8 km/h (6 Bft) 96,33 %
01.02.2016 09:00 11,3 C 93 % 1017,7 hPa 0,0 l/m 23,5 km/h (4 Bft) W-SW 256 0 min 0,025 mm 0,0 UV-I 16 W/m 10,2 C 4,0 C 41,8 km/h (6 Bft) 96,49 %
01.02.2016 09:05 11,4 C 92 % 1018,1 hPa 0,0 l/m 25,1 km/h (4 Bft) W-SW 240 0 min 0,000 mm 0,0 UV-I 14 W/m 10,1 C 3,7 C 41,8 km/h (6 Bft) 95,97 %
01.02.2016 09:10 11,6 C 92 % 1018,2 hPa 0,0 l/m 23,2 km/h (4 Bft) W-SW 246 0 min 0,000 mm 0,0 UV-I 14 W/m 10,3 C 4,5 C 43,5 km/h (6 Bft) 99,15 %
01.02.2016 09:15 11,6 C 92 % 1018,4 hPa 0,0 l/m 25,1 km/h (4 Bft) W 273 0 min 0,000 mm 0,0 UV-I 18 W/m 10,3 C 4,0 C 45,1 km/h (6 Bft) 99,17 %
01.02.2016 09:20 11,6 C 92 % 1018,4 hPa 0,2 l/m 30,7 km/h (5 Bft) W-SW 258 0 min 0,000 mm 0,0 UV-I 17 W/m 10,3 C 2,8 C 49,9 km/h (6 Bft) 98,31 %
01.02.2016 09:25 11,7 C 91 % 1018,7 hPa 0,0 l/m 27,9 km/h (4 Bft) W 262 0 min 0,000 mm 0,0 UV-I 19 W/m 10,3 C 3,5 C 51,5 km/h (7 Bft) 100,00 %
01.02.2016 09:30 11,7 C 91 % 1018,7 hPa 0,0 l/m 28,2 km/h (4 Bft) W 260 0 min 0,000 mm 0,0 UV-I 24 W/m 10,3 C 3,4 C 45,1 km/h (6 Bft) 99,15 %
01.02.2016 09:35 11,7 C 91 % 1018,7 hPa 0,2 l/m 28,0 km/h (4 Bft) W 261 0 min 0,000 mm 0,0 UV-I 23 W/m 10,3 C 3,5 C 45,1 km/h (6 Bft) 99,17 %
01.02.2016 09:40 11,7 C 91 % 1018,8 hPa 0,0 l/m 24,7 km/h (4 Bft) W-SW 248 0 min 0,000 mm 0,0 UV-I 20 W/m 10,3 C 4,2 C 37,0 km/h (5 Bft) 99,08 %
01.02.2016 09:45 11,7 C 90 % 1018,9 hPa 0,0 l/m 22,9 km/h (4 Bft) W-SW 256 0 min 0,000 mm 0,0 UV-I 22 W/m 10,1 C 4,7 C 45,1 km/h (6 Bft) 98,43 %
01.02.2016 09:50 11,7 C 91 % 1019,0 hPa 0,0 l/m 18,9 km/h (3 Bft) W 261 0 min 0,000 mm 0,0 UV-I 34 W/m 10,3 C 5,8 C 33,8 km/h (5 Bft) 98,25 %
01.02.2016 09:55 11,7 C 90 % 1019,0 hPa 0,0 l/m 26,2 km/h (4 Bft) W-SW 253 0 min 0,000 mm 0,0 UV-I 34 W/m 10,1 C 3,9 C 54,7 km/h (7 Bft) 98,21 %
01.02.2016 10:00 11,8 C 89 % 1019,1 hPa 0,0 l/m 23,4 km/h (4 Bft) W-SW 250 0 min 0,026 mm 0,0 UV-I 33 W/m 10,0 C 4,7 C 37,0 km/h (5 Bft) 99,17 %
01.02.2016 10:05 11,9 C 88 % 1019,3 hPa 0,0 l/m 23,3 km/h (4 Bft) W-SW 238 0 min 0,000 mm 0,0 UV-I 31 W/m 10,0 C 4,8 C 41,8 km/h (6 Bft) 98,33 %
01.02.2016 10:10 11,9 C 88 % 1019,4 hPa 0,0 l/m 20,9 km/h (4 Bft) W 270 0 min 0,000 mm 0,0 UV-I 31 W/m 10,0 C 5,5 C 41,8 km/h (6 Bft) 100,00 %
01.02.2016 10:15 11,9 C 88 % 1019,5 hPa 0,0 l/m 20,5 km/h (4 Bft) W-SW 254 0 min 0,000 mm 0,0 UV-I 29 W/m 10,0 C 5,6 C 43,5 km/h (6 Bft) 100,00 %
01.02.2016 10:20 11,9 C 87 % 1019,6 hPa 0,0 l/m 22,0 km/h (4 Bft) SW 230 0 min 0,000 mm 0,0 UV-I 28 W/m 9,8 C 5,2 C 35,4 km/h (5 Bft) 98,33 %
01.02.2016 10:25 11,9 C 88 % 1019,7 hPa 0,0 l/m 23,2 km/h (4 Bft) W-SW 239 0 min 0,000 mm 0,0 UV-I 29 W/m 10,0 C 4,9 C 32,2 km/h (5 Bft) 100,00 %
01.02.2016 10:30 11,9 C 88 % 1019,7 hPa 0,0 l/m 26,0 km/h (4 Bft) SW 236 0 min 0,000 mm 0,0 UV-I 33 W/m 10,0 C 4,2 C 43,5 km/h (6 Bft) 99,19 %
01.02.2016 10:35 11,9 C 88 % 1019,6 hPa 0,0 l/m 22,5 km/h (4 Bft) S 173 0 min 0,000 mm 0,0 UV-I 34 W/m 10,0 C 5,0 C 37,0 km/h (5 Bft) 99,06 %
01.02.2016 10:40 11,8 C 89 % 1019,7 hPa 0,0 l/m 19,8 km/h (3 Bft) W-SW 252 0 min 0,000 mm 0,0 UV-I 34 W/m 10,0 C 5,7 C 29,0 km/h (5 Bft) 98,46 %
01.02.2016 10:45 11,6 C 90 % 1019,8 hPa 0,0 l/m 18,4 km/h (3 Bft) W 261 0 min 0,000 mm 0,0 UV-I 32 W/m 10,0 C 5,9 C 29,0 km/h (5 Bft) 98,15 %
01.02.2016 10:50 11,4 C 91 % 1019,8 hPa 0,0 l/m 18,5 km/h (3 Bft) W-SW 243 0 min 0,000 mm 0,0 UV-I 38 W/m 10,0 C 5,6 C 30,6 km/h (5 Bft) 96,69 %
01.02.2016 10:55 11,3 C 91 % 1020,0 hPa 0,0 l/m 19,5 km/h (3 Bft) SW 234 0 min 0,000 mm 0,0 UV-I 43 W/m 9,9 C 5,1 C 27,4 km/h (4 Bft) 97,46 %
01.02.2016 11:00 11,3 C 91 % 1020,1 hPa 0,0 l/m 21,0 km/h (4 Bft) W-SW 238 0 min 0,051 mm 0,0 UV-I 43 W/m 9,9 C 4,7 C 35,4 km/h (5 Bft) 97,37 %
01.02.2016 11:05 11,4 C 91 % 1020,3 hPa 0,0 l/m 20,7 km/h (4 Bft) SW 225 0 min 0,000 mm 0,0 UV-I 35 W/m 10,0 C 4,9 C 32,2 km/h (5 Bft) 97,58 %
01.02.2016 11:10 11,3 C 91 % 1020,3 hPa 0,0 l/m 19,9 km/h (4 Bft) SW 215 0 min 0,000 mm 0,0 UV-I 39 W/m 9,9 C 5,0 C 32,2 km/h (5 Bft) 97,30 %
01.02.2016 11:15 11,5 C 90 % 1020,3 hPa 0,0 l/m 22,6 km/h (4 Bft) W 260 0 min 0,000 mm 0,0 UV-I 49 W/m 9,9 C 4,5 C 33,8 km/h (5 Bft) 93,75 %
01.02.2016 11:20 11,5 C 90 % 1020,2 hPa 0,0 l/m 25,5 km/h (4 Bft) SW 228 0 min 0,000 mm 0,0 UV-I 40 W/m 9,9 C 3,7 C 38,6 km/h (5 Bft) 99,21 %
01.02.2016 11:25 11,4 C 90 % 1020,3 hPa 0,0 l/m 25,5 km/h (4 Bft) SW 224 0 min 0,000 mm 0,0 UV-I 36 W/m 9,8 C 3,6 C 38,6 km/h (5 Bft) 98,15 %
01.02.2016 11:30 11,4 C 90 % 1020,4 hPa 0,0 l/m 22,8 km/h (4 Bft) S-SW 213 0 min 0,000 mm 0,0 UV-I 43 W/m 9,8 C 4,3 C 37,0 km/h (5 Bft) 99,19 %
01.02.2016 11:35 11,3 C 91 % 1020,4 hPa 0,0 l/m 23,8 km/h (4 Bft) W-SW 250 0 min 0,000 mm 0,0 UV-I 49 W/m 9,9 C 3,9 C 38,6 km/h (5 Bft) 100,00 %
01.02.2016 11:40 11,2 C 91 % 1020,4 hPa 0,0 l/m 24,0 km/h (4 Bft) SW 231 0 min 0,000 mm 0,0 UV-I 53 W/m 9,8 C 3,7 C 33,8 km/h (5 Bft) 99,12 %
01.02.2016 11:45 11,2 C 92 % 1020,4 hPa 0,0 l/m 24,8 km/h (4 Bft) SW 217 0 min 0,000 mm 0,2 UV-I 72 W/m 9,9 C 3,5 C 33,8 km/h (5 Bft) 99,13 %
01.02.2016 11:50 11,1 C 93 % 1020,5 hPa 0,0 l/m 21,4 km/h (4 Bft) W 260 0 min 0,000 mm 0,2 UV-I 74 W/m 10,0 C 4,3 C 30,6 km/h (5 Bft) 99,17 %
01.02.2016 11:55 10,9 C 93 % 1020,5 hPa 0,0 l/m 22,3 km/h (4 Bft) W-SW 239 0 min 0,000 mm 0,0 UV-I 66 W/m 9,8 C 3,8 C 35,4 km/h (5 Bft) 100,00 %
01.02.2016 12:00 10,9 C 94 % 1020,5 hPa 0,2 l/m 22,4 km/h (4 Bft) SW 229 0 min 0,050 mm 0,0 UV-I 62 W/m 10,0 C 3,7 C 38,6 km/h (5 Bft) 100,00 %
01.02.2016 12:05 10,8 C 94 % 1020,5 hPa 0,2 l/m 20,6 km/h (4 Bft) SW 235 0 min 0,000 mm 0,0 UV-I 62 W/m 9,9 C 4,1 C 33,8 km/h (5 Bft) 98,20 %
01.02.2016 12:10 10,8 C 94 % 1020,5 hPa 0,0 l/m 22,5 km/h (4 Bft) SW 235 0 min 0,000 mm 0,0 UV-I 60 W/m 9,9 C 3,6 C 32,2 km/h (5 Bft) 99,17 %
01.02.2016 12:15 10,7 C 95 % 1020,6 hPa 0,2 l/m 20,9 km/h (4 Bft) W-SW 240 0 min 0,000 mm 0,0 UV-I 55 W/m 9,9 C 3,9 C 32,2 km/h (5 Bft) 98,37 %
01.02.2016 12:20 10,6 C 95 % 1020,6 hPa 0,2 l/m 19,3 km/h (3 Bft) W-SW 238 0 min 0,000 mm 0,0 UV-I 46 W/m 9,8 C 4,3 C 30,6 km/h (5 Bft) 100,00 %
01.02.2016 12:25 10,6 C 95 % 1020,8 hPa 0,0 l/m 20,1 km/h (4 Bft) W-SW 250 0 min 0,000 mm 0,0 UV-I 44 W/m 9,8 C 4,0 C 32,2 km/h (5 Bft) 100,00 %
01.02.2016 12:30 10,6 C 95 % 1020,9 hPa 0,0 l/m 22,6 km/h (4 Bft) SW 229 0 min 0,000 mm 0,0 UV-I 35 W/m 9,8 C 3,3 C 35,4 km/h (5 Bft) 98,29 %
01.02.2016 12:35 10,6 C 95 % 1020,9 hPa 0,2 l/m 20,0 km/h (4 Bft) W 280 0 min 0,000 mm 0,0 UV-I 34 W/m 9,8 C 4,1 C 30,6 km/h (5 Bft) 99,15 %
01.02.2016 12:40 10,6 C 95 % 1020,8 hPa 0,0 l/m 19,2 km/h (3 Bft) SW 228 0 min 0,000 mm 0,0 UV-I 42 W/m 9,8 C 4,3 C 32,2 km/h (5 Bft) 100,00 %
01.02.2016 12:45 10,6 C 95 % 1020,8 hPa 0,0 l/m 17,7 km/h (3 Bft) SW 219 0 min 0,000 mm 0,0 UV-I 61 W/m 9,8 C 4,8 C 27,4 km/h (4 Bft) 99,06 %
01.02.2016 12:50 10,6 C 95 % 1020,8 hPa 0,2 l/m 18,5 km/h (3 Bft) W-SW 240 0 min 0,000 mm 0,0 UV-I 62 W/m 9,8 C 4,6 C 29,0 km/h (5 Bft) 96,83 %
01.02.2016 12:55 10,6 C 95 % 1020,8 hPa 0,0 l/m 16,4 km/h (3 Bft) W-SW 257 0 min 0,000 mm 0,0 UV-I 59 W/m 9,8 C 5,3 C 24,1 km/h (4 Bft) 96,33 %
01.02.2016 13:00 10,7 C 95 % 1020,8 hPa 0,0 l/m 14,8 km/h (3 Bft) W 266 0 min 0,026 mm 0,2 UV-I 68 W/m 9,9 C 6,1 C 24,1 km/h (4 Bft) 96,75 %
01.02.2016 13:05 10,7 C 94 % 1020,8 hPa 0,0 l/m 16,3 km/h (3 Bft) SW 234 0 min 0,000 mm 0,5 UV-I 72 W/m 9,8 C 5,5 C 24,1 km/h (4 Bft) 96,61 %
01.02.2016 13:10 10,8 C 94 % 1020,9 hPa 0,0 l/m 17,8 km/h (3 Bft) SW 224 0 min 0,000 mm 0,3 UV-I 74 W/m 9,9 C 5,0 C 24,1 km/h (4 Bft) 96,43 %
01.02.2016 13:15 10,9 C 93 % 1021,0 hPa 0,0 l/m 16,7 km/h (3 Bft) SW 234 0 min 0,000 mm 0,5 UV-I 75 W/m 9,8 C 5,6 C 25,7 km/h (4 Bft) 96,75 %
01.02.2016 13:20 11,0 C 92 % 1020,8 hPa 0,2 l/m 17,5 km/h (3 Bft) SW 235 0 min 0,000 mm 0,6 UV-I 84 W/m 9,8 C 5,4 C 37,0 km/h (5 Bft) 97,46 %
01.02.2016 13:25 11,2 C 92 % 1020,7 hPa 0,0 l/m 19,6 km/h (3 Bft) W-SW 244 0 min 0,000 mm 0,7 UV-I 104 W/m 9,9 C 5,0 C 32,2 km/h (5 Bft) 99,10 %
01.02.2016 13:30 11,4 C 90 % 1020,6 hPa 0,0 l/m 23,1 km/h (4 Bft) W 263 0 min 0,000 mm 0,9 UV-I 124 W/m 9,8 C 4,2 C 35,4 km/h (5 Bft) 99,15 %
01.02.2016 13:35 11,6 C 88 % 1020,6 hPa 0,0 l/m 19,3 km/h (3 Bft) SW 227 0 min 0,000 mm 0,9 UV-I 133 W/m 9,7 C 5,6 C 32,2 km/h (5 Bft) 99,17 %
01.02.2016 13:40 11,8 C 87 % 1020,8 hPa 0,0 l/m 22,4 km/h (4 Bft) W-NW 295 0 min 0,000 mm 0,9 UV-I 136 W/m 9,7 C 4,9 C 48,3 km/h (6 Bft) 99,10 %
01.02.2016 13:45 12,0 C 86 % 1020,8 hPa 0,0 l/m 24,0 km/h (4 Bft) W-SW 250 0 min 0,000 mm 0,8 UV-I 152 W/m 9,7 C 4,8 C 35,4 km/h (5 Bft) 100,00 %
01.02.2016 13:50 12,2 C 84 % 1020,9 hPa 0,0 l/m 24,8 km/h (4 Bft) W 277 0 min 0,000 mm 0,8 UV-I 166 W/m 9,6 C 4,9 C 40,2 km/h (6 Bft) 99,15 %
01.02.2016 13:55 12,3 C 83 % 1020,8 hPa 0,0 l/m 25,7 km/h (4 Bft) W-NW 286 0 min 0,000 mm 0,8 UV-I 143 W/m 9,5 C 4,8 C 45,1 km/h (6 Bft) 100,00 %
01.02.2016 14:00 12,2 C 83 % 1020,8 hPa 0,0 l/m 25,7 km/h (4 Bft) W-SW 257 0 min 0,076 mm 0,8 UV-I 125 W/m 9,4 C 4,7 C 41,8 km/h (6 Bft) 99,19 %
01.02.2016 14:05 12,2 C 83 % 1020,9 hPa 0,0 l/m 26,3 km/h (4 Bft) W-SW 247 0 min 0,000 mm 0,8 UV-I 110 W/m 9,4 C 4,5 C 46,7 km/h (6 Bft) 99,10 %
01.02.2016 14:10 12,3 C 82 % 1021,0 hPa 0,0 l/m 28,4 km/h (4 Bft) SW 232 0 min 0,000 mm 0,6 UV-I 93 W/m 9,3 C 4,2 C 45,1 km/h (6 Bft) 100,00 %
01.02.2016 14:15 12,4 C 82 % 1021,2 hPa 0,0 l/m 25,8 km/h (4 Bft) W 266 0 min 0,000 mm 0,6 UV-I 92 W/m 9,4 C 4,9 C 51,5 km/h (7 Bft) 100,00 %
01.02.2016 14:20 12,3 C 81 % 1021,2 hPa 0,0 l/m 23,3 km/h (4 Bft) W 269 0 min 0,000 mm 0,1 UV-I 78 W/m 9,1 C 5,4 C 38,6 km/h (5 Bft) 99,22 %
01.02.2016 14:25 12,4 C 81 % 1021,3 hPa 0,0 l/m 25,4 km/h (4 Bft) W-SW 258 0 min 0,000 mm 0,0 UV-I 67 W/m 9,2 C 5,0 C 41,8 km/h (6 Bft) 99,17 %
01.02.2016 14:30 12,4 C 80 % 1021,2 hPa 0,0 l/m 24,9 km/h (4 Bft) W 263 0 min 0,000 mm 0,0 UV-I 63 W/m 9,0 C 5,1 C 35,4 km/h (5 Bft) 99,13 %
01.02.2016 14:35 12,4 C 80 % 1021,2 hPa 0,0 l/m 21,8 km/h (4 Bft) W 261 0 min 0,000 mm 0,0 UV-I 56 W/m 9,0 C 5,9 C 33,8 km/h (5 Bft) 98,20 %
01.02.2016 14:40 12,4 C 80 % 1021,3 hPa 0,0 l/m 20,9 km/h (4 Bft) SW 221 0 min 0,000 mm 0,0 UV-I 52 W/m 9,0 C 6,1 C 33,8 km/h (5 Bft) 98,39 %
01.02.2016 14:45 12,4 C 79 % 1021,3 hPa 0,0 l/m 22,0 km/h (4 Bft) SW 234 0 min 0,000 mm 0,0 UV-I 61 W/m 8,9 C 5,8 C 33,8 km/h (5 Bft) 98,25 %
01.02.2016 14:50 12,6 C 78 % 1021,2 hPa 0,0 l/m 23,2 km/h (4 Bft) SW 224 0 min 0,000 mm 0,0 UV-I 69 W/m 8,9 C 5,8 C 35,4 km/h (5 Bft) 99,13 %
01.02.2016 14:55 12,8 C 77 % 1021,1 hPa 0,0 l/m 26,8 km/h (4 Bft) W-SW 243 0 min 0,000 mm 0,2 UV-I 107 W/m 8,9 C 5,2 C 53,1 km/h (7 Bft) 97,58 %
01.02.2016 15:00 13,2 C 75 % 1021,1 hPa 0,0 l/m 27,8 km/h (4 Bft) W-SW 245 5 min 0,102 mm 0,5 UV-I 226 W/m 8,9 C 5,6 C 46,7 km/h (6 Bft) 98,20 %
01.02.2016 15:05 13,5 C 74 % 1021,1 hPa 0,0 l/m 25,3 km/h (4 Bft) W-SW 241 5 min 0,000 mm 0,5 UV-I 266 W/m 9,0 C 6,5 C 41,8 km/h (6 Bft) 97,58 %
01.02.2016 15:10 13,5 C 73 % 1021,1 hPa 0,0 l/m 23,5 km/h (4 Bft) W-SW 238 5 min 0,000 mm 0,5 UV-I 205 W/m 8,8 C 6,9 C 33,8 km/h (5 Bft) 97,39 %
01.02.2016 15:15 13,5 C 73 % 1021,2 hPa 0,0 l/m 20,2 km/h (4 Bft) W 263 5 min 0,000 mm 0,2 UV-I 137 W/m 8,8 C 7,8 C 33,8 km/h (5 Bft) 97,50 %
01.02.2016 15:20 13,7 C 72 % 1021,1 hPa 0,0 l/m 21,8 km/h (4 Bft) W-SW 246 5 min 0,000 mm 0,0 UV-I 160 W/m 8,7 C 7,6 C 41,8 km/h (6 Bft) 96,33 %
01.02.2016 15:25 13,7 C 72 % 1021,1 hPa 0,0 l/m 16,2 km/h (3 Bft) SW 227 5 min 0,000 mm 0,0 UV-I 139 W/m 8,7 C 9,2 C 25,7 km/h (4 Bft) 96,75 %
01.02.2016 15:30 13,7 C 72 % 1021,0 hPa 0,0 l/m 19,7 km/h (3 Bft) W 265 5 min 0,000 mm 0,0 UV-I 137 W/m 8,7 C 8,1 C 35,4 km/h (5 Bft) 99,15 %
01.02.2016 15:35 13,6 C 72 % 1020,9 hPa 0,0 l/m 17,6 km/h (3 Bft) W 262 0 min 0,000 mm 0,0 UV-I 107 W/m 8,6 C 8,6 C 29,0 km/h (5 Bft) 99,11 %
01.02.2016 15:40 13,7 C 71 % 1021,0 hPa 0,0 l/m 21,4 km/h (4 Bft) W-SW 256 0 min 0,000 mm 0,0 UV-I 102 W/m 8,5 C 7,7 C 40,2 km/h (6 Bft) 99,15 %
01.02.2016 15:45 13,6 C 70 % 1021,0 hPa 0,0 l/m 18,5 km/h (3 Bft) W-SW 244 0 min 0,000 mm 0,0 UV-I 75 W/m 8,2 C 8,4 C 35,4 km/h (5 Bft) 100,00 %
01.02.2016 15:50 13,6 C 70 % 1021,1 hPa 0,0 l/m 19,9 km/h (4 Bft) NW 308 0 min 0,000 mm 0,0 UV-I 68 W/m 8,2 C 8,0 C 32,2 km/h (5 Bft) 100,00 %
01.02.2016 15:55 13,7 C 70 % 1021,2 hPa 0,0 l/m 21,3 km/h (4 Bft) W 273 0 min 0,000 mm 0,0 UV-I 71 W/m 8,3 C 7,7 C 35,4 km/h (5 Bft) 99,13 %
01.02.2016 16:00 13,7 C 70 % 1021,1 hPa 0,0 l/m 20,3 km/h (4 Bft) NW 317 0 min 0,127 mm 0,0 UV-I 69 W/m 8,3 C 8,0 C 38,6 km/h (5 Bft) 99,15 %
01.02.2016 16:05 13,7 C 70 % 1021,2 hPa 0,0 l/m 20,8 km/h (4 Bft) W 264 5 min 0,000 mm 0,0 UV-I 77 W/m 8,3 C 7,9 C 40,2 km/h (6 Bft) 100,00 %
01.02.2016 16:10 13,7 C 69 % 1021,2 hPa 0,0 l/m 20,9 km/h (4 Bft) W-SW 254 0 min 0,000 mm 0,0 UV-I 44 W/m 8,1 C 7,8 C 37,0 km/h (5 Bft) 99,21 %
01.02.2016 16:15 13,5 C 69 % 1021,1 hPa 0,0 l/m 19,3 km/h (3 Bft) SW 225 0 min 0,000 mm 0,0 UV-I 47 W/m 7,9 C 8,0 C 32,2 km/h (5 Bft) 99,11 %
01.02.2016 16:20 13,5 C 69 % 1021,3 hPa 0,0 l/m 18,9 km/h (3 Bft) W-SW 247 0 min 0,000 mm 0,0 UV-I 46 W/m 7,9 C 8,1 C 32,2 km/h (5 Bft) 100,00 %
01.02.2016 16:25 13,4 C 70 % 1021,2 hPa 0,0 l/m 18,0 km/h (3 Bft) W 269 5 min 0,000 mm 0,0 UV-I 53 W/m 8,0 C 8,3 C 29,0 km/h (5 Bft) 98,43 %
01.02.2016 16:30 13,5 C 69 % 1021,0 hPa 0,0 l/m 19,9 km/h (4 Bft) W 263 0 min 0,000 mm 0,0 UV-I 36 W/m 7,9 C 7,8 C 35,4 km/h (5 Bft) 98,29 %
01.02.2016 16:35 13,4 C 70 % 1021,2 hPa 0,0 l/m 19,9 km/h (4 Bft) W-SW 246 0 min 0,000 mm 0,0 UV-I 25 W/m 8,0 C 7,7 C 35,4 km/h (5 Bft) 100,00 %
01.02.2016 16:40 13,4 C 69 % 1021,1 hPa 0,0 l/m 23,8 km/h (4 Bft) W 271 0 min 0,000 mm 0,0 UV-I 22 W/m 7,8 C 6,7 C 41,8 km/h (6 Bft) 100,00 %
01.02.2016 16:45 13,4 C 70 % 1021,1 hPa 0,0 l/m 21,5 km/h (4 Bft) W-SW 252 0 min 0,000 mm 0,0 UV-I 15 W/m 8,0 C 7,3 C 33,8 km/h (5 Bft) 97,56 %
01.02.2016 16:50 13,3 C 70 % 1021,1 hPa 0,0 l/m 23,0 km/h (4 Bft) W 267 5 min 0,000 mm 0,0 UV-I 10 W/m 7,9 C 6,8 C 33,8 km/h (5 Bft) 100,00 %
01.02.2016 16:55 13,2 C 70 % 1021,2 hPa 0,0 l/m 21,2 km/h (4 Bft) W-SW 252 0 min 0,000 mm 0,0 UV-I 7 W/m 7,9 C 7,1 C 40,2 km/h (6 Bft) 96,69 %
01.02.2016 17:00 13,1 C 70 % 1021,2 hPa 0,0 l/m 22,5 km/h (4 Bft) W-SW 247 0 min 0,102 mm 0,0 UV-I 5 W/m 7,8 C 6,6 C 38,6 km/h (5 Bft) 99,12 %
01.02.2016 17:10 12,9 C 71 % 1021,4 hPa 0,0 l/m 19,3 km/h (3 Bft) W-SW 247 0 min 0,000 mm 0,0 UV-I 0 W/m 7,8 C 7,2 C 30,6 km/h (5 Bft) 100,00 %
01.02.2016 17:15 12,8 C 72 % 1021,2 hPa 0,0 l/m 16,1 km/h (3 Bft) W-SW 247 0 min 0,000 mm 0,0 UV-I 0 W/m 7,9 C 8,1 C 29,0 km/h (5 Bft) 89,47 %
01.02.2016 17:20 12,6 C 72 % 1021,2 hPa 0,0 l/m 17,7 km/h (3 Bft) W-SW 247 0 min 0,000 mm 0,0 UV-I 0 W/m 7,7 C 7,3 C 32,2 km/h (5 Bft) 100,00 %
01.02.2016 17:25 12,6 C 72 % 1021,2 hPa 0,0 l/m 19,3 km/h (3 Bft) W-SW 247 0 min 0,000 mm 0,0 UV-I 0 W/m 7,7 C 6,9 C 30,6 km/h (5 Bft) 99,12 %
01.02.2016 17:30 12,4 C 73 % 1021,2 hPa 0,0 l/m 17,7 km/h (3 Bft) W-SW 247 0 min 0,000 mm 0,0 UV-I 0 W/m 7,7 C 7,1 C 29,0 km/h (5 Bft) 100,00 %
01.02.2016 17:35 12,3 C 73 % 1021,3 hPa 0,0 l/m 14,5 km/h (3 Bft) W-SW 247 0 min 0,000 mm 0,0 UV-I 0 W/m 7,6 C 8,1 C 20,9 km/h (4 Bft) 97,37 %
01.02.2016 17:40 12,3 C 73 % 1021,2 hPa 0,0 l/m 15,1 km/h (3 Bft) W-SW 250 0 min 0,000 mm 0,0 UV-I 0 W/m 7,6 C 7,9 C 24,1 km/h (4 Bft) 96,17 %
01.02.2016 17:45 12,3 C 73 % 1021,2 hPa 0,0 l/m 15,2 km/h (3 Bft) W-SW 251 0 min 0,000 mm 0,0 UV-I 0 W/m 7,6 C 7,8 C 24,1 km/h (4 Bft) 97,32 %
01.02.2016 17:50 12,1 C 74 % 1021,2 hPa 0,0 l/m 10,3 km/h (2 Bft) W 260 0 min 0,000 mm 0,0 UV-I 0 W/m 7,6 C 9,8 C 19,3 km/h (3 Bft) 100,00 %
01.02.2016 17:55 12,0 C 74 % 1021,3 hPa 0,0 l/m 14,9 km/h (3 Bft) SW 223 0 min 0,000 mm 0,0 UV-I 0 W/m 7,5 C 7,6 C 22,5 km/h (4 Bft) 100,00 %
01.02.2016 18:00 11,9 C 75 % 1021,4 hPa 0,0 l/m 10,1 km/h (2 Bft) SW 227 0 min 0,050 mm 0,0 UV-I 0 W/m 7,6 C 9,6 C 20,9 km/h (4 Bft) 100,00 %
01.02.2016 18:05 11,7 C 75 % 1021,4 hPa 0,0 l/m 9,1 km/h (2 Bft) SW 225 0 min 0,000 mm 0,0 UV-I 0 W/m 7,4 C 10,0 C 17,7 km/h (3 Bft) 99,06 %
01.02.2016 18:10 11,6 C 76 % 1021,4 hPa 0,0 l/m 10,5 km/h (2 Bft) W-SW 239 0 min 0,000 mm 0,0 UV-I 0 W/m 7,5 C 9,1 C 17,7 km/h (3 Bft) 100,00 %
01.02.2016 18:15 11,3 C 76 % 1021,4 hPa 0,0 l/m 8,0 km/h (2 Bft) SW 223 0 min 0,000 mm 0,0 UV-I 0 W/m 7,2 C 10,2 C 12,9 km/h (3 Bft) 100,00 %
01.02.2016 18:20 11,2 C 77 % 1021,4 hPa 0,0 l/m 8,6 km/h (2 Bft) S 190 0 min 0,000 mm 0,0 UV-I 0 W/m 7,3 C 9,7 C 12,9 km/h (3 Bft) 99,17 %
01.02.2016 18:25 11,0 C 78 % 1021,4 hPa 0,0 l/m 8,9 km/h (2 Bft) SW 226 0 min 0,000 mm 0,0 UV-I 0 W/m 7,3 C 9,3 C 16,1 km/h (3 Bft) 96,69 %
01.02.2016 18:30 10,7 C 79 % 1021,3 hPa 0,0 l/m 8,5 km/h (2 Bft) S 190 0 min 0,000 mm 0,0 UV-I 0 W/m 7,2 C 9,3 C 16,1 km/h (3 Bft) 100,00 %
01.02.2016 18:35 10,4 C 80 % 1021,3 hPa 0,0 l/m 8,1 km/h (2 Bft) S-SW 209 0 min 0,000 mm 0,0 UV-I 0 W/m 7,1 C 9,2 C 12,9 km/h (3 Bft) 99,24 %
01.02.2016 18:40 10,3 C 81 % 1021,4 hPa 0,0 l/m 7,7 km/h (2 Bft) SW 221 0 min 0,000 mm 0,0 UV-I 0 W/m 7,2 C 9,4 C 14,5 km/h (3 Bft) 98,26 %
01.02.2016 18:45 10,3 C 82 % 1021,5 hPa 0,0 l/m 7,9 km/h (2 Bft) S-SW 213 0 min 0,000 mm 0,0 UV-I 0 W/m 7,4 C 9,2 C 11,3 km/h (2 Bft) 99,15 %
01.02.2016 18:50 10,1 C 82 % 1021,4 hPa 0,0 l/m 6,8 km/h (2 Bft) SW 229 0 min 0,000 mm 0,0 UV-I 0 W/m 7,2 C 9,8 C 11,3 km/h (2 Bft) 100,00 %
01.02.2016 18:55 9,8 C 83 % 1021,3 hPa 0,0 l/m 6,5 km/h (2 Bft) S-SW 210 0 min 0,000 mm 0,0 UV-I 0 W/m 7,1 C 9,8 C 8,0 km/h (2 Bft) 100,00 %
01.02.2016 19:00 9,6 C 84 % 1021,4 hPa 0,0 l/m 8,1 km/h (2 Bft) SW 225 0 min 0,025 mm 0,0 UV-I 0 W/m 7,0 C 8,4 C 14,5 km/h (3 Bft) 99,13 %
01.02.2016 19:05 9,4 C 84 % 1021,5 hPa 0,0 l/m 9,7 km/h (2 Bft) W-SW 238 0 min 0,000 mm 0,0 UV-I 0 W/m 6,8 C 7,1 C 14,5 km/h (3 Bft) 97,30 %
01.02.2016 19:10 9,4 C 85 % 1021,5 hPa 0,0 l/m 7,8 km/h (2 Bft) S-SW 212 0 min 0,000 mm 0,0 UV-I 0 W/m 7,0 C 8,4 C 12,9 km/h (3 Bft) 97,52 %
01.02.2016 19:15 9,3 C 85 % 1021,5 hPa 0,0 l/m 8,0 km/h (2 Bft) SW 236 0 min 0,000 mm 0,0 UV-I 0 W/m 6,9 C 8,1 C 12,9 km/h (3 Bft) 97,56 %
01.02.2016 19:20 9,3 C 85 % 1021,7 hPa 0,0 l/m 7,2 km/h (2 Bft) S-SW 212 0 min 0,000 mm 0,0 UV-I 0 W/m 6,9 C 8,7 C 11,3 km/h (2 Bft) 98,21 %
01.02.2016 19:25 9,3 C 85 % 1021,6 hPa 0,0 l/m 9,5 km/h (2 Bft) W-SW 253 0 min 0,000 mm 0,0 UV-I 0 W/m 6,9 C 7,1 C 14,5 km/h (3 Bft) 96,61 %
01.02.2016 19:30 9,4 C 85 % 1021,7 hPa 0,0 l/m 10,3 km/h (2 Bft) S-SW 213 0 min 0,000 mm 0,0 UV-I 0 W/m 7,0 C 6,8 C 14,5 km/h (3 Bft) 96,55 %
01.02.2016 19:35 9,5 C 84 % 1021,7 hPa 0,0 l/m 10,2 km/h (2 Bft) SW 233 0 min 0,000 mm 0,0 UV-I 0 W/m 6,9 C 6,9 C 17,7 km/h (3 Bft) 96,69 %
01.02.2016 19:40 9,4 C 85 % 1021,7 hPa 0,0 l/m 11,3 km/h (2 Bft) S-SW 213 0 min 0,000 mm 0,0 UV-I 0 W/m 7,0 C 6,2 C 17,7 km/h (3 Bft) 97,56 %
01.02.2016 19:45 9,5 C 84 % 1021,8 hPa 0,0 l/m 10,5 km/h (2 Bft) W-SW 249 0 min 0,000 mm 0,0 UV-I 0 W/m 6,9 C 6,8 C 16,1 km/h (3 Bft) 100,00 %
01.02.2016 19:50 9,6 C 84 % 1021,8 hPa 0,0 l/m 9,3 km/h (2 Bft) SW 225 0 min 0,000 mm 0,0 UV-I 0 W/m 7,0 C 7,6 C 14,5 km/h (3 Bft) 97,46 %
01.02.2016 19:55 9,7 C 84 % 1021,9 hPa 0,0 l/m 11,0 km/h (2 Bft) SW 233 0 min 0,000 mm 0,0 UV-I 0 W/m 7,1 C 6,7 C 16,1 km/h (3 Bft) 96,58 %
01.02.2016 20:00 9,6 C 84 % 1021,9 hPa 0,0 l/m 13,0 km/h (3 Bft) SW 229 0 min 0,000 mm 0,0 UV-I 0 W/m 7,0 C 5,6 C 19,3 km/h (3 Bft) 100,00 %
01.02.2016 20:05 9,6 C 84 % 1021,8 hPa 0,0 l/m 12,1 km/h (2 Bft) SW 231 0 min 0,025 mm 0,0 UV-I 0 W/m 7,0 C 6,0 C 19,3 km/h (3 Bft) 100,00 %
01.02.2016 20:10 9,6 C 84 % 1021,8 hPa 0,0 l/m 12,4 km/h (3 Bft) S-SW 211 0 min 0,001 mm 0,0 UV-I 0 W/m 7,0 C 5,9 C 19,3 km/h (3 Bft) 100,00 %
01.02.2016 20:15 9,6 C 84 % 1021,9 hPa 0,0 l/m 12,2 km/h (2 Bft) SW 233 0 min 0,000 mm 0,0 UV-I 0 W/m 7,0 C 6,0 C 17,7 km/h (3 Bft) 99,15 %
01.02.2016 20:20 9,3 C 84 % 1022,0 hPa 0,0 l/m 13,8 km/h (3 Bft) SW 220 0 min 0,000 mm 0,0 UV-I 0 W/m 6,7 C 4,8 C 19,3 km/h (3 Bft) 100,00 %
01.02.2016 20:25 9,3 C 85 % 1022,0 hPa 0,0 l/m 13,0 km/h (3 Bft) S-SW 209 0 min 0,000 mm 0,0 UV-I 0 W/m 6,9 C 5,2 C 19,3 km/h (3 Bft) 99,13 %
01.02.2016 20:30 9,3 C 85 % 1021,9 hPa 0,0 l/m 11,2 km/h (2 Bft) SW 229 0 min 0,000 mm 0,0 UV-I 0 W/m 6,9 C 6,1 C 17,7 km/h (3 Bft) 100,00 %
01.02.2016 20:35 9,4 C 84 % 1022,0 hPa 0,0 l/m 13,5 km/h (3 Bft) SW 234 0 min 0,000 mm 0,0 UV-I 0 W/m 6,8 C 5,1 C 19,3 km/h (3 Bft) 99,08 %
01.02.2016 20:40 9,4 C 84 % 1022,0 hPa 0,0 l/m 12,0 km/h (2 Bft) S-SW 208 0 min 0,000 mm 0,0 UV-I 0 W/m 6,8 C 5,8 C 17,7 km/h (3 Bft) 100,00 %
01.02.2016 20:45 9,7 C 84 % 1022,1 hPa 0,0 l/m 11,1 km/h (2 Bft) S 189 0 min 0,000 mm 0,0 UV-I 0 W/m 7,1 C 6,6 C 20,9 km/h (4 Bft) 100,00 %
01.02.2016 20:50 9,6 C 83 % 1022,1 hPa 0,0 l/m 11,4 km/h (2 Bft) W-SW 243 0 min 0,000 mm 0,0 UV-I 0 W/m 6,9 C 6,4 C 19,3 km/h (3 Bft) 99,15 %
01.02.2016 20:55 9,3 C 84 % 1022,2 hPa 0,0 l/m 12,3 km/h (3 Bft) SW 236 0 min 0,000 mm 0,0 UV-I 0 W/m 6,7 C 5,6 C 19,3 km/h (3 Bft) 99,15 %
01.02.2016 21:00 9,3 C 84 % 1022,1 hPa 0,0 l/m 12,1 km/h (2 Bft) S-SW 211 0 min 0,025 mm 0,0 UV-I 0 W/m 6,7 C 5,7 C 19,3 km/h (3 Bft) 100,00 %
01.02.2016 21:05 9,5 C 84 % 1022,2 hPa 0,0 l/m 9,3 km/h (2 Bft) SW 225 0 min 0,000 mm 0,0 UV-I 0 W/m 6,9 C 7,5 C 17,7 km/h (3 Bft) 98,10 %
01.02.2016 21:10 9,6 C 84 % 1022,2 hPa 0,0 l/m 11,1 km/h (2 Bft) S 181 0 min 0,000 mm 0,0 UV-I 0 W/m 7,0 C 6,5 C 20,9 km/h (4 Bft) 100,00 %
01.02.2016 21:15 9,6 C 84 % 1022,1 hPa 0,0 l/m 11,6 km/h (2 Bft) SW 214 0 min 0,000 mm 0,0 UV-I 0 W/m 7,0 C 6,3 C 17,7 km/h (3 Bft) 97,37 %
01.02.2016 21:20 9,7 C 83 % 1022,2 hPa 0,0 l/m 12,9 km/h (3 Bft) SW 225 0 min 0,000 mm 0,0 UV-I 0 W/m 7,0 C 5,7 C 19,3 km/h (3 Bft) 97,52 %
01.02.2016 21:25 9,7 C 83 % 1022,3 hPa 0,0 l/m 16,0 km/h (3 Bft) W-SW 248 0 min 0,000 mm 0,0 UV-I 0 W/m 7,0 C 4,4 C 24,1 km/h (4 Bft) 98,17 %
01.02.2016 21:30 9,9 C 82 % 1022,4 hPa 0,0 l/m 12,7 km/h (3 Bft) W-SW 248 0 min 0,000 mm 0,0 UV-I 0 W/m 7,0 C 6,1 C 19,3 km/h (3 Bft) 96,67 %
01.02.2016 21:35 9,8 C 83 % 1022,4 hPa 0,0 l/m 9,3 km/h (2 Bft) W-SW 248 0 min 0,000 mm 0,0 UV-I 0 W/m 7,1 C 7,8 C 14,5 km/h (3 Bft) 97,46 %
01.02.2016 21:40 9,7 C 83 % 1022,5 hPa 0,0 l/m 10,0 km/h (2 Bft) W 277 0 min 0,000 mm 0,0 UV-I 0 W/m 7,0 C 7,3 C 16,1 km/h (3 Bft) 97,32 %
01.02.2016 21:45 9,5 C 83 % 1022,5 hPa 0,0 l/m 9,1 km/h (2 Bft) W-SW 237 0 min 0,000 mm 0,0 UV-I 0 W/m 6,8 C 7,6 C 14,5 km/h (3 Bft) 97,56 %
01.02.2016 21:50 9,5 C 84 % 1022,6 hPa 0,0 l/m 10,7 km/h (2 Bft) SW 226 0 min 0,000 mm 0,0 UV-I 0 W/m 6,9 C 6,6 C 20,9 km/h (4 Bft) 99,13 %
01.02.2016 21:55 9,6 C 83 % 1022,7 hPa 0,0 l/m 10,0 km/h (2 Bft) SW 236 0 min 0,000 mm 0,0 UV-I 0 W/m 6,9 C 7,2 C 19,3 km/h (3 Bft) 98,37 %
01.02.2016 22:00 9,6 C 83 % 1022,8 hPa 0,0 l/m 11,2 km/h (2 Bft) S-SW 212 0 min 0,026 mm 0,0 UV-I 0 W/m 6,9 C 6,5 C 17,7 km/h (3 Bft) 100,00 %
01.02.2016 22:05 9,6 C 83 % 1022,9 hPa 0,0 l/m 10,4 km/h (2 Bft) SW 234 0 min 0,000 mm 0,0 UV-I 0 W/m 6,9 C 6,9 C 17,7 km/h (3 Bft) 98,35 %
01.02.2016 22:10 9,5 C 83 % 1022,9 hPa 0,0 l/m 10,9 km/h (2 Bft) W-SW 244 0 min 0,000 mm 0,0 UV-I 0 W/m 6,8 C 6,5 C 19,3 km/h (3 Bft) 100,00 %
01.02.2016 22:15 9,6 C 83 % 1023,0 hPa 0,0 l/m 13,1 km/h (3 Bft) SW 231 0 min 0,000 mm 0,0 UV-I 0 W/m 6,9 C 5,5 C 22,5 km/h (4 Bft) 100,00 %
01.02.2016 22:20 9,6 C 83 % 1022,9 hPa 0,0 l/m 12,4 km/h (3 Bft) SW 231 0 min 0,000 mm 0,0 UV-I 0 W/m 6,9 C 5,9 C 22,5 km/h (4 Bft) 99,13 %
01.02.2016 22:25 9,6 C 83 % 1023,0 hPa 0,0 l/m 12,2 km/h (2 Bft) S-SW 210 0 min 0,000 mm 0,0 UV-I 0 W/m 6,9 C 6,0 C 20,9 km/h (4 Bft) 99,15 %
01.02.2016 22:30 9,5 C 83 % 1023,0 hPa 0,0 l/m 11,5 km/h (2 Bft) W-SW 240 0 min 0,000 mm 0,0 UV-I 0 W/m 6,8 C 6,2 C 20,9 km/h (4 Bft) 100,00 %
01.02.2016 22:35 9,5 C 83 % 1023,0 hPa 0,0 l/m 10,3 km/h (2 Bft) SW 227 0 min 0,000 mm 0,0 UV-I 0 W/m 6,8 C 6,9 C 19,3 km/h (3 Bft) 99,12 %
01.02.2016 22:40 9,6 C 83 % 1023,0 hPa 0,0 l/m 14,0 km/h (3 Bft) W-SW 254 0 min 0,000 mm 0,0 UV-I 0 W/m 6,9 C 5,1 C 22,5 km/h (4 Bft) 98,17 %
01.02.2016 22:45 9,7 C 83 % 1023,1 hPa 0,0 l/m 10,9 km/h (2 Bft) SW 221 0 min 0,000 mm 0,0 UV-I 0 W/m 7,0 C 6,8 C 19,3 km/h (3 Bft) 99,11 %
01.02.2016 22:50 9,7 C 83 % 1023,2 hPa 0,0 l/m 10,3 km/h (2 Bft) SW 229 0 min 0,000 mm 0,0 UV-I 0 W/m 7,0 C 7,1 C 19,3 km/h (3 Bft) 99,24 %
01.02.2016 22:55 9,7 C 83 % 1023,2 hPa 0,0 l/m 9,9 km/h (2 Bft) S-SW 199 0 min 0,000 mm 0,0 UV-I 0 W/m 7,0 C 7,3 C 16,1 km/h (3 Bft) 100,00 %
01.02.2016 23:00 9,7 C 83 % 1023,1 hPa 0,0 l/m 13,1 km/h (3 Bft) SW 221 0 min 0,025 mm 0,0 UV-I 0 W/m 7,0 C 5,6 C 22,5 km/h (4 Bft) 98,35 %
01.02.2016 23:05 9,7 C 83 % 1023,1 hPa 0,0 l/m 11,1 km/h (2 Bft) S-SW 213 0 min 0,000 mm 0,0 UV-I 0 W/m 7,0 C 6,6 C 19,3 km/h (3 Bft) 100,00 %
01.02.2016 23:10 9,7 C 83 % 1023,1 hPa 0,0 l/m 12,9 km/h (3 Bft) S-SW 198 0 min 0,000 mm 0,0 UV-I 0 W/m 7,0 C 5,7 C 22,5 km/h (4 Bft) 100,00 %
01.02.2016 23:15 9,6 C 83 % 1023,2 hPa 0,0 l/m 13,7 km/h (3 Bft) S 184 0 min 0,000 mm 0,0 UV-I 0 W/m 6,9 C 5,2 C 25,7 km/h (4 Bft) 100,00 %
01.02.2016 23:20 9,6 C 83 % 1023,2 hPa 0,0 l/m 13,7 km/h (3 Bft) W-SW 241 0 min 0,000 mm 0,0 UV-I 0 W/m 6,9 C 5,2 C 22,5 km/h (4 Bft) 98,17 %
01.02.2016 23:25 9,7 C 83 % 1023,2 hPa 0,0 l/m 14,5 km/h (3 Bft) W-SW 257 0 min 0,000 mm 0,0 UV-I 0 W/m 7,0 C 5,0 C 22,5 km/h (4 Bft) 97,52 %
01.02.2016 23:30 9,8 C 82 % 1023,2 hPa 0,0 l/m 14,9 km/h (3 Bft) W 259 0 min 0,000 mm 0,0 UV-I 0 W/m 6,9 C 4,9 C 25,7 km/h (4 Bft) 96,58 %
01.02.2016 23:35 9,8 C 82 % 1023,2 hPa 0,0 l/m 14,2 km/h (3 Bft) SW 235 0 min 0,000 mm 0,0 UV-I 0 W/m 6,9 C 5,2 C 20,9 km/h (4 Bft) 96,61 %
01.02.2016 23:40 9,8 C 82 % 1023,2 hPa 0,0 l/m 13,7 km/h (3 Bft) W-SW 248 0 min 0,000 mm 0,0 UV-I 0 W/m 6,9 C 5,5 C 20,9 km/h (4 Bft) 96,61 %
01.02.2016 23:45 9,8 C 82 % 1023,1 hPa 0,0 l/m 11,9 km/h (2 Bft) W-SW 251 0 min 0,000 mm 0,0 UV-I 0 W/m 6,9 C 6,3 C 19,3 km/h (3 Bft) 98,10 %
01.02.2016 23:50 9,8 C 82 % 1023,2 hPa 0,0 l/m 12,7 km/h (3 Bft) W-SW 244 0 min 0,000 mm 0,0 UV-I 0 W/m 6,9 C 5,9 C 20,9 km/h (4 Bft) 97,52 %
01.02.2016 23:55 9,7 C 82 % 1023,2 hPa 0,0 l/m 11,6 km/h (2 Bft) W-SW 254 0 min 0,000 mm 0,0 UV-I 0 W/m 6,8 C 6,4 C 19,3 km/h (3 Bft) 99,19 %
_ Min-Zeit 00:00 16:10 00:55 - 01:50 - - - - - - 00:00 05:25 01:50 17:15
Minimum _ 2,7 C 69 % 1012,0 hPa - 0,1 km/h (0 Bft) - - - - - - 2,4 C 2,1 C 1,6 km/h (1 Bft) 89,47 %
_ Max-Zeit 15:20 01:30 22:50 07:05 09:20 - - 15:00 16:00 13:30 15:05 08:35 18:15 09:55 00:55
Maximum _ 13,7 C 99 % 1023,2 hPa 0,6 l/m 30,7 km/h
W-SW (5 Bft)
- - 5 min 0,127 mm 0,9 UV-I 266 W/m 10,6 C 10,2 C 54,7 km/h
W-SW (7 Bft)
100,00 %
Durchschnitt _ 9,2 C 89 % 1018,5 hPa #19,4 l/m 13,6 km/h (3 Bft) W-SW - #50 min. #0,762 mm 0,5 UV-I 58 W/m 7,3 C 5,3 C 23,2 km/h (4 Bft) 98,58 %